Wind_Speed
4 4 1 1 5 5 5 5 7 7 5 4 2 4 5 5 2 5 6 4 5 6 7 6 4 2 3 3 5 6 6 5 6 8 7 8 9 7 8 8 9 10 11 15 17 17 17 15 14 13 13 13 11 10 10 10 10 9 9 8 8 8 8 9 11 10 10 10 9 9 9 10 11 11 12 12 12 12 12 11 11 11 11 13 14 15
1 4 3 4 6 5 3 1 4 8 8 5 5 7 6 6 6 6 7 4 7 8 7 7 6 5 6 7 7 7 8 7 7 7 8 8 8 8 8 9 10 9 10 14 15 16 17 15 15 13 13 13 12 11 10 10 10 9 9 9 9 8 8 9 11 11 11 11 10 10 11 11 12 13 13 14 15 14 13 12 12 12 13 13 14 15
2 5 4 3 2 3 4 1 2 6 10 7 6 8 8 9 10 9 8 7 6 5 5 5 3 4 7 8 7 8 7 7 8 8 8 8 8 8 9 10 9 10 10 10 12 13 14 14 14 13 13 13 13 12 11 10 10 9 10 10 9 8 8 8 9 10 11 12 10 10 11 12 13 14 14 15 16 16 16 16 14 14 15 14 14 15
1 4 1 3 2 2 2 2 4 4 8 9 8 8 8 8 8 6 7 8 8 6 4 4 5 5 6 7 7 8 8 7 8 8 7 7 7 7 10 11 10 11 11 10 11 11 12 13 12 12 13 12 12 12 11 10 9 9 9 9 9 8 8 7 8 10 11 11 11 11 11 12 13 13 15 16 16 15 15 15 15 14 14 14 14 14
6 2 3 2 2 3 2 2 5 4 5 7 7 7 5 6 7 6 6 8 9 8 6 5 5 4 5 8 7 7 9 8 7 6 6 6 6 6 9 9 9 10 10 11 11 11 12 13 12 13 13 12 12 11 11 10 9 8 8 9 8 8 7 7 8 10 10 10 11 12 13 13 13 13 14 15 16 15 14 14 13 12 12 12 13 13
5 2 2 3 1 2 3 3 3 5 3 2 2 5 3 7 9 8 10 8 6 6 7 7 5 2 4 9 9 7 8 8 7 7 7 6 8 8 8 8 8 9 9 10 11 11 13 13 13 14 13 13 12 10 9 9 8 8 7 8 8 7 7 6 8 9 10 10 11 12 13 14 13 13 12 14 16 17 17 17 16 15 13 13 13 14
3 3 1 5 2 1 5 3 2 4 4 3 1 4 4 7 7 5 9 8 5 4 7 9 7 1 3 9 9 8 9 9 8 9 9 8 8 7 7 8 8 8 8 9 10 11 12 13 13 13 13 12 11 9 8 7 7 7 7 8 7 7 6 6 8 9 9 11 11 12 13 13 13 14 13 13 15 17 18 18 18 17 16 14 14 14
2 1 1 3 3 3 4 2 1 3 2 4 4 5 5 4 5 5 7 6 5 5 5 9 8 2 4 8 9 9 10 10 10 10 10 9 8 8 8 8 8 8 9 8 9 9 10 12 12 12 12 11 10 9 8 7 6 6 6 7 7 7 6 6 9 9 10 11 12 12 13 14 14 15 16 16 16 16 16 17 18 18 17 15 15 15
4 4 1 3 3 2 3 1 1 2 1 3 7 6 4 4 3 6 6 5 5 4 3 6 6 4 5 6 8 11 11 11 12 12 12 11 9 9 8 9 8 7 8 8 8 9 9 11 11 11 11 10 9 9 8 7 6 6 6 6 7 6 6 7 8 9 10 11 11 12 13 14 15 15 17 17 17 17 16 17 18 18 17 17 16 16
3 3 5 5 1 1 4 0 1 4 2 4 5 6 4 5 6 5 5 5 4 4 4 3 3 5 5 2 6 10 10 11 9 7 7 9 10 10 8 8 8 6 7 8 8 9 9 10 10 10 10 10 9 8 8 8 7 6 6 6 6 7 7 7 8 9 10 10 10 11 13 13 14 15 16 16 16 17 17 17 18 18 17 17 16 15
2 1 4 6 2 2 4 2 0 5 5 2 3 5 5 4 5 5 5 4 4 4 5 4 7 8 4 3 5 6 6 7 4 1 3 9 11 10 10 8 7 6 5 7 8 9 9 8 9 9 8 9 9 8 8 8 7 6 6 7 7 7 8 8 8 9 9 10 10 11 13 12 12 14 15 15 15 15 16 17 17 16 15 16 15 14
2 4 3 2 1 4 4 1 2 5 6 4 4 4 2 2 4 4 4 4 4 3 2 4 9 10 5 3 5 5 4 5 4 5 6 8 12 6 9 9 8 7 6 8 8 7 8 7 7 7 7 8 8 8 8 7 7 7 7 8 8 9 9 9 10 9 8 8 9 10 12 12 11 13 14 14 14 14 15 16 17 17 15 15 14 14
3 4 1 1 2 4 7 3 3 4 5 5 4 3 2 0 2 3 3 1 3 2 1 4 5 6 6 4 7 7 6 8 9 9 10 11 6 6 8 10 7 7 6 8 8 5 5 5 5 6 6 7 7 8 8 8 8 8 8 10 10 10 11 11 12 12 9 8 9 9 11 11 12 13 13 13 13 14 14 15 16 17 16 17 17 16
3 2 1 2 4 4 7 4 1 2 3 4 4 3 1 1 2 4 3 1 3 3 1 4 4 5 6 3 9 10 10 11 10 8 7 7 7 10 11 11 8 6 3 6 8 5 4 4 5 5 5 6 7 8 8 9 9 9 9 11 12 11 12 12 13 13 10 8 9 9 10 11 11 13 13 12 13 13 14 15 16 16 15 17 18 18
3 2 3 3 3 4 6 5 4 4 3 4 4 2 2 1 3 4 4 3 3 5 1 4 2 3 4 2 4 7 10 10 8 7 8 7 10 13 11 9 7 6 6 6 6 5 6 5 5 5 5 5 6 7 9 9 10 10 10 11 12 12 12 13 13 13 11 9 9 9 11 11 11 13 15 14 14 14 15 16 16 16 16 16 16 17
5 2 2 2 4 2 7 4 4 6 4 2 3 3 3 3 3 4 4 5 4 6 4 2 4 3 3 4 3 3 5 7 10 11 9 7 9 10 10 7 5 8 7 5 5 5 7 6 4 5 4 4 5 6 8 8 9 10 9 11 12 11 11 12 13 13 10 8 8 10 11 13 13 14 15 16 16 16 15 15 15 15 16 17 17 17
4 3 1 2 3 5 8 4 3 3 2 2 2 4 2 4 5 4 4 4 4 5 5 4 4 2 4 4 3 3 5 4 6 7 5 5 3 5 8 5 6 9 7 5 5 6 7 6 5 5 3 3 4 5 6 7 7 8 8 10 11 11 11 12 13 13 11 9 8 9 11 13 15 15 15 16 17 17 16 15 15 15 16 17 16 16
2 3 3 4 5 6 4 5 7 6 5 4 1 1 3 3 5 3 3 4 4 5 5 4 4 2 2 1 2 3 4 2 2 3 4 7 5 5 6 5 8 9 6 6 6 6 7 6 6 5 2 2 3 3 4 5 6 7 7 9 10 10 11 13 13 13 14 13 11 10 11 13 15 15 15 16 17 18 17 16 16 16 16 17 15 15
3 4 2 4 8 3 4 4 7 7 8 7 4 3 3 3 3 1 2 4 4 5 5 5 6 4 3 3 2 3 3 3 3 4 5 8 8 7 7 8 10 9 6 6 6 6 6 5 5 5 3 1 1 1 3 4 6 7 7 8 9 9 10 12 12 12 12 13 14 14 14 14 14 15 15 16 17 17 16 16 17 16 15 16 15 14
4 4 1 3 6 1 2 4 5 5 8 7 7 6 4 4 3 2 3 3 3 4 5 6 6 3 5 3 3 3 3 0 2 3 3 5 7 7 7 8 8 7 7 6 6 6 7 6 4 5 4 1 1 1 2 4 6 6 6 7 8 7 9 11 12 12 11 12 14 14 15 15 15 14 14 15 16 16 16 16 16 16 15 15 14 13
2 3 2 3 4 1 3 5 3 3 1 2 3 5 4 3 3 4 4 4 4 5 5 5 5 2 2 2 4 6 5 4 3 4 4 5 7 7 7 7 6 7 7 6 6 5 7 8 5 4 4 2 1 0 2 4 6 6 6 8 8 7 8 10 11 11 11 11 12 13 14 15 15 15 15 16 16 16 16 16 16 17 16 15 15 14
1 2 4 4 3 3 5 3 2 5 3 1 1 3 4 2 2 4 5 3 4 5 5 5 5 3 3 3 5 5 3 4 5 5 5 5 8 8 8 7 6 6 7 6 5 4 6 8 6 5 4 3 2 0 3 5 5 5 6 7 8 7 8 9 10 10 10 11 12 13 13 14 15 15 15 16 17 16 17 17 17 17 17 17 18 18
3 3 5 7 5 7 8 3 1 5 5 4 4 5 5 3 2 4 5 4 4 5 6 5 5 1 4 5 5 4 2 1 1 1 3 4 6 8 9 8 6 6 7 7 5 4 5 8 6 5 4 3 3 1 2 3 4 4 4 6 7 7 7 7 9 10 10 11 11 11 12 13 14 13 14 15 16 16 16 17 17 17 17 17 18 18
4 3 4 7 6 8 10 6 4 5 4 4 6 6 6 6 5 5 5 5 4 5 6 5 5 1 4 4 3 1 1 1 1 2 4 2 3 6 8 9 7 7 8 7 6 5 6 8 6 5 4 4 2 3 3 1 4 3 3 5 6 6 6 6 7 9 9 9 9 10 11 11 12 13 14 15 15 16 16 16 17 17 17 17 17 18
3 3 3 5 5 6 7 5 4 5 3 3 5 5 6 8 7 5 5 4 4 7 7 6 6 1 3 2 2 3 2 2 2 2 2 1 2 5 7 7 7 7 8 7 7 6 6 7 7 7 5 3 2 2 2 2 2 1 3 4 4 4 5 6 6 7 9 9 9 10 9 10 11 12 13 14 14 15 15 15 16 16 17 17 16 16
4 4 4 5 5 5 3 1 1 2 3 4 5 7 7 8 6 4 5 5 5 7 7 6 6 1 3 2 2 1 1 1 0 2 2 2 3 4 4 5 6 7 6 7 7 6 5 5 6 5 2 4 3 1 1 1 2 1 4 2 2 3 4 5 6 6 7 8 8 8 9 10 10 10 11 12 12 13 13 15 15 15 16 16 15 15
4 4 6 7 7 8 7 7 5 4 5 7 8 9 9 8 7 5 4 5 5 6 7 7 7 5 3 2 1 1 2 1 1 1 2 2 3 4 4 5 6 6 6 6 5 5 5 5 5 2 5 4 1 1 1 2 2 2 3 2 2 3 3 4 5 5 5 7 7 7 7 8 8 8 9 10 11 12 12 13 14 14 15 15 14 15
3 5 8 10 11 11 12 12 10 7 9 11 11 11 11 10 9 7 7 7 6 6 7 7 7 8 4 2 2 2 3 3 3 3 4 3 3 5 6 6 7 7 7 7 6 6 5 5 3 3 5 2 0 1 0 2 1 2 2 2 2 3 3 3 4 5 4 5 6 6 6 7 6 7 8 8 9 10 11 12 13 13 14 15 15 15
4 6 7 9 11 13 13 14 12 9 10 12 12 11 12 12 12 11 11 11 9 8 8 9 10 10 9 7 7 6 4 4 5 5 5 4 5 6 7 8 9 8 8 9 9 8 6 6 5 5 4 3 2 2 2 1 1 2 1 1 2 2 2 2 3 4 4 4 5 5 6 6 6 6 7 8 9 10 10 11 12 12 13 14 15 15
4 5 6 9 11 13 13 13 13 11 11 13 14 13 12 13 13 13 14 14 13 12 12 13 14 13 11 9 10 9 7 6 5 4 5 5 6 8 8 10 10 9 10 10 10 10 9 8 9 10 6 5 4 3 2 1 0 2 2 1 1 2 2 2 3 3 4 4 4 4 5 5 6 6 7 8 9 10 11 11 11 12 13 13 14 14
2 3 6 7 8 10 11 13 13 13 13 14 14 13 12 13 14 13 13 12 12 14 14 14 14 13 9 8 9 9 7 5 3 3 5 6 8 8 9 10 10 10 11 10 10 11 11 10 10 12 10 7 5 3 2 1 1 2 2 1 2 2 2 3 3 3 4 4 4 4 5 5 5 7 7 8 9 10 11 11 11 12 12 13 13 13
2 4 7 7 7 8 10 12 13 13 13 13 13 13 14 13 12 12 11 10 11 12 12 12 11 9 6 6 8 8 5 4 4 4 5 7 7 8 8 9 8 7 7 8 10 11 11 10 10 11 11 8 6 5 4 4 3 4 3 2 2 2 2 2 3 3 4 4 4 5 5 5 6 7 7 8 9 10 10 11 11 11 11 12 12 12
4 5 5 6 6 7 10 13 11 9 9 9 8 9 11 11 10 11 11 11 12 10 9 9 8 7 7 7 7 7 4 3 4 5 6 6 6 7 8 8 8 7 7 7 8 10 11 11 11 11 11 10 8 7 6 5 4 4 4 3 3 2 2 2 3 3 4 5 5 5 5 6 7 7 7 8 8 9 10 10 10 10 11 11 11 11
6 6 5 5 6 8 12 14 11 8 8 7 3 2 4 6 8 10 10 10 11 10 9 9 9 9 8 7 8 8 5 5 6 6 5 4 4 6 7 7 7 7 8 6 6 10 12 12 13 14 13 10 9 7 7 6 4 5 5 4 4 3 2 3 4 4 4 5 5 5 6 7 7 7 8 8 8 9 10 10 10 10 10 11 11 11
7 6 5 5 5 7 10 10 9 7 7 6 5 1 1 3 6 9 11 12 12 11 11 12 11 10 9 8 8 8 7 7 7 6 5 5 5 4 5 5 4 5 7 6 6 10 13 14 15 17 15 11 10 9 8 7 7 7 7 6 5 4 3 4 5 4 4 5 5 5 6 7 7 7 8 8 8 9 9 10 10 10 10 10 10 10
8 6 5 5 6 7 7 7 7 7 7 10 10 6 5 4 6 8 9 10 11 11 12 12 11 10 10 9 8 8 9 7 5 4 5 5 5 4 4 4 3 5 6 3 8 12 16 17 18 19 15 13 12 10 9 10 9 8 7 7 6 5 4 5 6 5 5 5 5 6 6 7 7 7 7 8 8 9 9 9 9 9 9 8 9 9
9 7 5 5 6 6 7 8 8 10 11 9 7 3 1 1 2 3 5 7 10 11 10 10 11 9 8 8 7 7 7 4 3 4 7 8 6 4 5 3 3 6 2 10 17 17 18 19 19 18 16 14 13 11 10 11 9 8 8 7 7 6 5 5 6 5 5 5 5 5 5 6 7 6 7 8 8 9 8 8 8 8 7 7 8 8
9 8 6 6 5 6 8 8 7 9 8 4 2 3 4 4 3 3 4 7 10 11 10 9 8 6 4 6 6 3 1 1 3 4 5 7 7 4 4 4 5 6 5 17 20 18 18 18 18 18 16 14 13 11 10 11 9 8 8 8 7 7 6 6 6 6 6 6 6 6 6 6 7 7 8 8 8 8 8 8 8 8 8 8 7 7
10 9 7 6 5 7 8 8 8 7 6 6 5 1 4 2 3 2 4 7 7 7 7 6 5 4 3 3 1 2 1 3 3 2 3 5 7 5 4 5 6 6 9 16 17 16 17 17 17 17 15 14 13 11 11 11 10 9 9 8 8 8 7 6 6 6 6 6 6 6 6 7 7 7 7 8 8 7 7 7 7 7 8 8 9 8
9 7 6 6 7 7 8 8 8 6 6 9 8 1 3 2 2 2 4 3 2 3 2 1 3 3 3 3 2 0 3 4 0 4 5 4 4 5 5 4 7 8 10 14 15 15 16 16 16 16 15 14 14 13 12 11 10 10 10 9 8 8 8 7 6 7 7 6 6 7 7 7 7 7 7 7 6 6 6 6 6 6 6 7 8 8
7 6 6 7 8 8 8 8 8 6 7 10 9 5 4 4 2 4 4 1 3 5 6 5 4 4 4 2 2 2 1 2 3 4 3 1 3 5 5 7 9 9 12 15 16 16 15 15 16 15 15 15 14 13 13 12 10 9 10 10 8 8 9 7 6 7 7 7 7 7 7 7 6 6 6 5 5 5 5 5 6 6 5 5 6 6
5 5 5 7 8 8 7 8 8 7 6 8 10 6 4 5 2 5 1 1 3 3 3 3 4 4 2 2 4 3 1 3 4 3 2 3 3 4 5 7 9 10 12 18 19 17 15 14 15 15 15 15 15 14 13 13 12 10 10 10 9 9 9 8 7 7 7 7 8 7 7 6 5 4 4 4 4 4 4 4 4 5 6 4 3 3
5 4 5 5 6 6 7 7 8 7 3 3 7 5 4 5 6 3 3 4 5 3 1 2 1 2 3 3 3 4 4 2 2 2 3 3 3 4 5 7 8 9 13 19 20 17 15 14 15 15 15 15 16 15 14 13 13 12 11 11 10 10 10 9 8 8 8 8 8 7 6 5 4 3 3 3 3 3 4 3 3 3 4 5 4 4
6 6 6 5 5 5 6 7 6 6 3 2 3 4 2 3 4 4 4 5 5 4 2 3 2 3 3 3 3 4 5 5 3 3 3 4 4 5 6 7 9 10 14 18 18 17 16 15 15 15 15 16 16 16 15 14 13 13 12 12 12 12 11 10 9 9 9 8 7 7 6 5 4 4 3 2 2 2 3 4 3 3 4 5 5 5
5 6 6 5 5 6 7 7 6 7 7 5 4 4 4 4 6 6 6 6 6 5 4 4 4 4 4 4 5 5 5 5 5 4 4 5 5 6 7 8 10 11 14 17 18 18 17 15 16 16 16 16 17 16 15 15 14 14 13 13 13 13 12 11 10 10 9 9 8 7 6 5 5 4 3 3 2 3 3 3 4 5 6 7 7 7
7 7 5 5 7 9 10 11 11 11 12 12 10 8 6 6 6 7 7 7 7 6 5 4 5 5 6 6 5 5 5 5 5 5 5 5 4 6 7 8 10 13 15 17 18 18 17 16 16 18 17 17 18 17 16 16 16 15 15 14 14 14 13 12 12 11 10 10 9 8 7 7 6 5 4 3 3 3 3 3 4 6 7 8 8 8
10 9 8 8 10 9 8 9 11 12 13 13 12 10 10 9 8 8 8 7 7 8 8 7 7 7 7 6 5 5 6 6 5 5 5 6 6 5 6 8 11 13 16 18 19 19 18 16 17 18 18 18 19 18 16 16 16 16 16 15 15 15 14 14 13 12 11 11 10 9 8 7 8 7 6 4 4 4 4 4 5 7 7 7 7 7
5 2 4 10 11 11 11 12 13 14 15 14 12 10 10 11 10 9 8 7 7 9 10 9 8 7 6 7 6 6 7 8 8 7 6 7 7 6 7 10 13 14 15 18 21 21 19 17 18 19 19 19 20 19 18 17 17 17 17 17 16 16 15 15 14 13 12 12 11 10 9 7 8 9 8 5 4 5 6 6 6 7 6 6 6 5
6 3 5 10 11 11 13 14 14 15 15 15 14 12 10 9 9 8 9 10 11 11 11 11 10 7 7 9 7 7 8 9 9 8 8 8 6 7 9 11 14 16 17 19 22 23 21 19 19 21 21 21 21 20 20 19 18 18 19 18 17 17 17 16 16 14 13 12 12 11 10 9 9 9 8 8 7 6 6 6 6 5 5 5 5 4
10 9 9 9 9 9 11 11 11 10 10 10 11 10 8 7 8 8 9 10 11 12 12 12 11 11 11 12 11 9 9 10 9 9 9 8 7 9 12 14 15 17 18 20 23 25 23 21 21 22 22 22 22 22 21 21 20 20 20 19 19 19 18 18 16 15 14 13 13 12 11 11 10 9 8 9 11 10 8 8 8 5 4 5 5 4
10 10 10 9 9 10 12 11 9 8 9 10 10 10 10 10 10 11 11 11 11 11 11 11 11 12 13 13 13 13 11 10 12 12 9 9 11 12 14 15 15 17 19 21 22 24 24 22 21 23 23 23 23 23 22 22 22 22 21 21 20 20 19 19 17 16 15 14 14 13 13 12 11 11 9 10 13 13 12 11 11 8 5 4 4 4
Wind_Direction
207 247 196 248 287 255 215 213 187 162 164 207 212 160 212 263 243 281 283 165 175 242 239 227 188 173 239 234 215 192 167 158 149 147 152 155 158 145 127 127 125 125 125 124 125 122 119 116 111 111 112 107 100 95 93 87 82 73 67 66 56 45 40 29 20 17 11 2 354 343 331 324 316 308 306 299 289 284 277 273 267 261 260 259 258 256
220 282 288 239 263 292 323 277 175 160 160 168 179 181 204 233 208 223 259 224 182 202 219 206 170 178 227 229 213 195 174 178 181 166 173 178 156 133 135 137 131 128 126 125 122 117 117 116 114 111 108 107 100 94 90 84 78 68 60 58 52 47 42 30 20 13 1 353 346 332 324 317 309 304 301 297 293 293 289 285 279 272 270 268 264 261
330 265 267 259 261 319 343 334 232 200 177 166 179 191 202 214 199 188 215 239 224 220 218 209 206 193 209 219 209 200 193 190 191 188 194 181 159 157 154 143 139 135 126 119 111 106 105 105 109 108 104 103 100 94 88 81 75 62 53 48 46 46 42 33 21 9 355 345 339 329 321 315 309 301 296 291 286 285 285 283 282 278 273 272 269 265
270 250 271 13 353 269 271 215 251 232 180 184 189 199 215 207 192 182 205 217 221 248 233 194 248 246 201 206 204 206 206 199 196 195 197 179 170 175 154 146 152 139 127 121 112 106 103 101 101 101 101 98 92 88 80 75 70 59 49 40 38 40 35 33 22 5 353 343 338 331 324 319 313 306 302 296 286 280 279 281 281 279 276 274 272 269
203 229 63 33 313 295 313 220 247 254 200 195 191 219 227 174 190 202 195 202 199 218 224 187 215 238 213 207 200 208 210 198 193 192 195 178 144 120 121 134 142 134 132 130 122 119 114 108 103 99 97 90 84 79 73 70 65 58 50 38 34 32 27 26 14 0 352 345 338 334 330 325 321 318 316 312 306 300 297 297 294 289 284 279 278 279
182 80 46 236 267 342 294 247 256 284 272 168 164 273 247 171 205 199 170 194 204 197 202 196 208 231 242 225 200 198 207 196 189 195 206 183 137 123 126 128 126 128 132 127 124 123 117 113 108 101 93 87 82 79 75 70 63 62 53 40 34 25 20 16 4 357 353 345 338 336 332 327 323 320 319 317 315 315 315 311 306 302 296 287 284 284
117 80 302 275 299 219 259 279 271 268 321 11 202 275 273 192 198 177 169 193 218 211 192 199 219 243 274 242 213 200 205 203 198 199 216 205 162 157 160 147 145 142 132 125 119 114 111 109 104 99 95 91 90 89 86 78 65 62 53 41 33 22 16 11 359 352 352 346 339 336 328 321 317 313 311 309 307 307 307 306 302 299 295 289 285 283
8 347 232 275 277 228 259 324 204 220 340 341 272 268 280 223 171 178 205 203 209 232 203 205 224 220 221 224 211 213 211 209 210 204 220 223 181 174 176 160 161 154 140 129 115 108 106 102 98 97 97 95 97 97 94 87 73 63 55 41 31 22 15 8 357 350 349 346 340 337 331 324 319 316 314 311 308 305 302 301 300 299 296 290 287 286
283 293 311 272 271 282 291 47 82 274 208 212 248 262 263 254 220 201 221 229 225 250 229 209 227 241 242 214 193 213 219 216 219 208 213 221 196 180 178 164 160 151 135 123 114 111 104 99 98 98 98 98 98 95 91 88 76 67 61 41 31 27 18 8 359 352 350 347 344 343 339 331 323 321 319 317 316 316 314 308 302 300 297 293 289 289
241 321 343 299 278 289 280 235 125 286 271 181 230 264 242 238 248 225 228 241 226 250 260 259 282 267 281 297 190 204 223 224 221 218 229 238 214 187 175 164 154 143 128 120 114 110 106 104 103 99 97 96 92 85 83 80 70 66 59 39 33 30 20 9 0 358 354 351 351 350 344 335 326 325 325 325 326 326 328 322 311 304 297 295 294 291
107 3 303 279 296 337 303 354 355 272 296 309 246 254 237 241 262 242 236 239 219 240 258 281 276 255 258 290 219 205 232 231 208 199 316 294 258 199 166 166 161 155 144 130 121 116 115 109 104 99 91 87 83 74 71 67 62 59 48 34 30 27 21 12 1 1 1 356 355 353 347 337 333 335 333 333 334 336 338 335 329 322 311 307 305 304
181 197 210 245 292 318 291 235 197 248 276 283 262 251 238 323 319 270 243 237 241 264 295 262 242 230 226 230 223 230 247 232 208 192 195 243 267 235 163 168 169 169 165 141 127 123 125 115 102 95 82 77 72 64 59 56 53 48 36 28 23 19 18 6 354 360 8 0 355 352 344 338 341 344 343 341 340 344 345 340 339 339 339 334 325 322
258 214 81 82 186 256 270 244 177 220 246 244 248 248 217 30 339 275 267 255 257 267 344 309 272 244 250 192 182 215 229 220 221 222 202 190 234 260 190 170 168 186 186 143 128 128 129 123 108 90 77 71 63 54 47 42 40 34 26 21 15 13 12 1 355 2 11 4 354 346 339 341 346 345 346 346 344 349 350 344 342 343 347 348 343 339
243 223 246 200 165 205 257 271 230 243 253 242 261 268 228 291 278 273 283 245 250 252 106 23 352 288 281 175 167 186 199 212 215 226 230 176 193 232 199 169 176 187 151 106 121 136 131 120 107 90 72 63 55 45 37 31 28 23 18 15 9 8 5 356 357 5 9 4 353 343 340 345 347 344 346 346 344 349 352 350 349 348 349 347 346 346
256 249 244 230 126 170 228 247 273 300 302 269 284 280 131 135 258 276 294 275 267 277 288 84 106 248 271 234 187 183 190 202 190 201 234 199 198 211 181 165 180 153 113 110 137 149 131 121 110 101 79 58 53 40 29 23 20 14 10 9 3 2 360 350 356 7 5 359 352 344 344 346 349 350 351 352 349 351 356 354 351 352 353 350 349 350
265 255 225 180 96 217 249 255 279 292 300 291 298 270 173 154 224 255 288 291 293 290 277 191 196 210 194 195 208 216 222 205 177 188 210 188 189 187 157 160 170 137 133 148 154 142 129 130 127 112 85 58 58 39 24 17 14 6 4 6 357 356 357 347 354 4 0 356 352 350 350 348 353 356 356 358 356 353 355 358 356 354 355 356 356 357
288 306 274 175 145 238 265 311 302 263 296 322 304 288 267 155 202 258 274 268 274 274 265 245 232 189 155 179 194 216 255 240 170 177 177 135 166 177 143 148 159 144 154 172 160 146 141 145 137 118 98 79 69 36 18 12 7 0 2 2 351 354 355 344 349 359 358 1 359 356 357 354 355 357 356 358 358 354 352 357 360 357 358 359 359 0
324 295 283 271 253 230 240 306 293 264 278 293 251 319 319 197 208 272 289 265 267 267 270 277 280 262 163 202 246 205 229 246 132 164 163 132 146 183 151 159 170 153 163 185 166 146 145 148 141 131 113 82 78 40 13 3 360 1 4 356 347 355 355 340 346 0 1 3 6 4 1 357 357 357 357 357 357 357 357 358 1 2 3 1 2 7
358 276 243 265 268 217 152 266 277 259 249 259 275 302 300 268 241 273 283 281 292 290 292 299 301 318 86 120 212 191 207 231 190 199 189 151 159 178 169 181 179 159 169 190 172 153 150 153 154 147 133 41 81 71 22 6 360 357 360 355 348 355 353 340 346 4 7 4 7 8 3 359 357 356 357 357 356 359 0 0 4 6 4 4 10 16
339 292 240 242 258 206 146 236 256 243 215 226 275 283 256 255 261 266 271 274 280 283 292 304 309 351 85 127 174 123 102 202 217 237 214 160 166 172 169 187 189 172 174 180 180 174 157 159 162 143 141 282 331 42 19 18 6 355 359 358 350 356 354 345 351 6 13 11 8 5 2 359 358 357 357 357 357 2 5 4 7 8 7 11 15 14
297 280 284 255 253 241 232 232 257 295 226 177 282 284 274 286 303 287 272 259 265 275 288 303 308 342 74 126 141 129 136 152 182 242 236 171 170 176 171 181 197 185 168 167 182 178 157 157 159 149 166 234 290 34 54 33 5 354 7 357 349 2 0 351 356 4 13 21 14 6 4 1 359 1 1 1 3 5 8 10 11 13 18 24 27 26
315 302 302 285 272 259 254 247 310 307 316 3 265 276 299 350 4 284 269 272 293 301 309 309 308 339 39 70 96 112 143 159 169 203 219 190 178 181 171 166 189 181 156 162 176 167 158 156 162 188 197 212 243 250 51 29 355 351 10 355 349 7 5 355 354 355 11 26 18 8 7 5 4 6 5 5 8 10 12 14 15 20 28 36 41 42
347 316 304 290 280 269 268 271 269 267 281 288 256 262 291 304 268 270 283 321 329 313 308 298 291 345 71 69 62 59 40 32 74 186 228 213 178 173 161 156 181 173 151 166 173 165 169 158 168 207 208 213 229 163 75 13 345 355 12 355 353 6 6 1 352 349 8 26 21 14 13 10 7 9 8 7 11 14 16 17 19 27 35 40 44 45
335 271 267 279 276 265 261 246 210 207 233 273 255 250 267 269 271 282 299 322 317 295 294 289 281 275 101 92 79 115 162 120 338 279 260 237 162 162 156 158 181 165 149 170 173 169 174 159 172 215 216 209 195 121 116 33 338 344 30 6 357 1 2 5 359 352 2 17 26 27 19 11 8 8 9 10 13 16 17 20 23 30 36 41 46 45
305 274 273 285 281 255 233 210 200 190 186 276 276 268 261 258 265 276 288 299 285 276 279 278 283 290 121 146 187 191 178 161 179 213 256 274 174 172 164 168 178 154 152 176 171 172 177 163 184 221 215 176 123 89 112 89 314 307 72 22 352 2 4 4 4 359 356 3 26 32 21 16 15 10 9 10 14 15 17 21 24 29 34 39 46 47
286 301 298 288 289 280 276 357 295 271 316 311 297 298 288 270 264 264 277 276 262 272 272 263 282 337 129 203 253 177 98 340 136 133 188 234 187 173 165 165 160 147 164 178 165 171 172 166 206 223 152 102 89 35 34 29 311 49 77 30 349 18 17 7 0 357 355 359 18 30 26 25 18 11 14 14 15 17 18 22 24 27 32 35 42 46
287 291 281 278 286 290 304 319 303 288 302 298 293 296 290 279 273 263 262 264 269 287 280 266 287 294 197 191 298 35 111 230 272 189 223 222 162 156 152 151 158 167 177 172 170 187 170 173 220 180 97 85 72 71 20 325 321 55 55 13 38 40 26 16 356 352 1 4 12 23 38 38 17 13 23 21 20 22 23 26 27 28 31 34 38 41
277 268 265 270 273 278 289 299 303 306 297 288 286 284 278 279 282 271 257 260 273 285 276 275 296 297 275 227 232 231 186 201 223 215 226 225 178 171 164 173 197 195 172 165 189 204 184 183 193 121 107 116 9 44 341 293 317 70 31 354 46 37 22 25 359 354 4 15 13 12 38 51 28 22 30 25 27 29 28 33 32 32 37 38 39 38
270 270 272 277 275 277 281 280 282 286 284 281 281 279 276 277 278 276 270 267 265 262 264 279 288 284 284 286 278 280 277 256 248 226 213 212 207 197 186 197 213 199 170 175 192 193 188 187 164 142 159 188 201 235 218 221 228 127 114 13 47 35 14 22 13 0 2 25 24 6 23 38 27 30 37 29 31 30 32 38 36 36 40 40 42 41
255 264 275 285 282 281 283 281 280 279 275 271 265 261 263 268 269 269 269 267 267 266 266 275 278 274 277 287 290 291 288 276 261 217 197 208 218 216 210 211 212 199 187 191 193 183 184 187 160 150 173 206 218 228 200 174 213 101 104 75 67 57 16 20 28 14 8 27 30 11 22 31 22 28 34 32 34 31 33 38 36 39 42 39 41 41
227 264 280 285 282 280 280 281 280 273 267 263 259 258 260 264 264 263 264 264 264 267 269 271 274 275 278 282 280 274 267 264 252 203 200 216 222 223 226 228 221 205 197 197 192 181 179 177 157 152 171 200 212 211 190 202 200 125 128 134 92 64 31 30 33 29 26 32 35 26 29 34 33 35 31 32 38 34 32 36 36 38 41 39 40 40
189 269 286 280 276 276 271 268 266 267 270 270 270 273 271 267 263 258 259 259 258 264 271 270 268 272 277 275 272 267 249 225 220 224 229 229 227 228 234 244 243 220 202 199 193 179 168 163 159 159 165 176 189 193 185 193 195 167 152 130 101 81 64 57 40 37 43 43 47 45 37 38 46 48 38 34 40 39 34 36 37 38 39 38 38 39
235 259 279 279 280 282 278 277 278 279 278 272 267 269 272 276 278 269 256 251 253 257 262 263 264 274 283 284 281 276 257 223 230 241 237 227 228 232 232 237 240 235 232 217 183 158 150 156 163 158 150 156 179 190 180 186 190 157 140 137 129 121 113 99 72 55 57 57 57 54 49 50 53 52 46 40 42 43 40 40 39 36 37 38 37 40
253 255 265 278 283 283 286 291 292 274 260 266 276 280 284 294 297 293 284 270 264 261 262 266 264 264 270 275 280 281 268 244 249 257 252 233 229 242 246 236 221 225 240 230 163 142 146 154 154 144 141 154 172 171 164 169 165 145 147 156 147 138 133 118 99 74 67 68 64 57 56 60 57 52 53 49 45 46 44 42 41 36 37 38 36 38
259 258 264 272 272 277 287 295 290 268 260 280 286 238 221 275 277 285 291 288 282 279 277 278 274 270 267 263 267 275 267 246 244 250 248 238 230 242 263 258 215 216 239 225 165 141 141 142 135 132 139 155 158 156 163 167 164 162 163 160 151 149 144 123 110 92 79 74 68 63 61 63 60 54 55 55 51 51 46 42 41 36 38 40 35 37
255 256 259 264 264 272 279 274 270 272 282 290 280 249 217 224 243 264 277 278 275 269 263 264 264 263 264 262 260 266 261 249 243 245 232 229 231 227 239 241 201 218 240 194 127 121 125 130 130 132 141 150 153 166 179 172 169 171 166 158 152 150 143 127 117 104 93 81 71 67 62 64 65 57 55 58 53 50 45 41 41 36 34 43 40 37
253 257 257 257 258 266 273 271 273 279 280 282 284 285 2 12 301 297 293 284 278 273 268 264 258 251 257 265 265 268 266 246 232 246 229 214 212 217 227 223 204 228 224 95 101 111 121 129 132 135 143 150 160 180 180 164 167 173 163 158 153 149 145 133 121 111 103 93 80 72 64 66 71 62 58 60 53 49 44 39 41 35 28 41 46 40
235 242 247 254 254 259 269 272 275 276 276 281 323 29 46 32 11 350 309 286 274 263 257 259 263 262 260 256 251 268 337 255 244 264 236 189 169 177 212 200 195 210 131 104 111 122 129 133 136 139 147 156 168 178 166 157 168 172 160 159 158 154 150 136 125 116 105 96 90 84 72 66 70 67 64 62 53 48 45 40 39 33 26 36 47 45
234 234 240 250 256 260 265 268 269 269 274 286 300 39 97 65 5 343 293 281 265 238 225 240 277 298 289 276 315 49 7 261 251 343 37 103 130 155 212 195 174 173 135 121 128 137 136 138 142 144 152 163 169 170 160 159 171 171 161 165 165 155 144 130 124 122 112 102 97 93 82 72 69 66 66 64 57 48 45 42 39 34 32 38 41 41
246 241 236 239 247 254 258 263 266 267 276 286 294 272 154 123 49 306 275 294 359 44 59 358 320 347 19 28 33 298 262 268 149 79 58 69 129 168 199 169 143 148 141 134 138 141 140 143 148 153 162 168 167 167 163 165 176 175 164 165 166 152 142 134 126 124 121 113 105 98 91 84 75 68 67 67 62 54 48 45 38 33 40 47 45 42
238 240 235 236 242 243 246 256 263 267 275 281 279 242 181 117 103 246 254 330 21 24 29 14 358 29 46 18 291 253 221 73 82 99 111 154 175 178 172 150 150 162 158 147 145 146 148 154 160 164 168 168 167 168 166 167 176 176 163 164 166 152 144 143 134 128 126 119 112 103 95 92 84 76 72 67 65 63 52 47 40 31 38 52 52 50
223 228 233 239 245 245 243 251 264 265 253 262 270 252 142 116 196 236 236 336 306 339 31 5 351 12 20 296 295 305 43 107 107 117 175 200 186 172 155 149 162 173 157 144 146 153 159 166 169 170 169 168 168 170 170 170 174 172 166 167 165 152 147 147 142 139 135 124 116 108 101 100 95 89 85 74 69 69 55 49 50 37 32 35 38 50
227 216 222 227 234 249 251 247 261 270 231 231 273 268 154 164 228 258 7 340 314 323 223 219 280 316 299 301 303 298 293 268 142 158 209 203 171 176 177 164 171 172 150 143 152 164 170 171 173 173 172 169 170 172 173 173 173 171 170 170 163 154 152 152 150 147 140 130 124 121 118 115 111 110 107 93 81 76 59 43 51 46 29 22 21 31
245 233 243 233 212 226 243 235 241 263 252 193 247 257 210 202 248 276 309 306 305 311 279 244 246 254 273 289 276 274 285 280 260 232 215 188 171 186 190 176 177 175 158 154 162 171 175 175 174 174 174 170 172 176 176 176 176 172 170 170 162 156 156 158 156 150 143 141 141 141 142 140 136 135 126 112 106 97 73 44 40 47 34 26 25 24
246 241 253 253 237 242 260 262 265 283 293 292 281 276 285 296 285 272 267 267 271 270 263 271 284 285 288 284 272 269 268 262 264 266 245 216 194 191 189 181 183 182 170 166 170 176 181 179 173 172 175 173 174 179 178 177 178 174 172 171 164 160 164 163 157 155 155 155 155 155 158 155 145 146 150 141 123 99 86 64 52 47 35 32 32 24
267 265 256 251 260 264 265 266 271 278 284 286 286 276 260 259 271 273 266 262 264 264 259 264 277 286 288 283 276 275 268 255 251 257 258 252 225 194 181 179 185 188 180 173 175 181 184 182 174 174 176 174 175 181 181 179 180 177 174 172 167 167 171 166 162 166 167 164 165 166 166 164 160 158 159 164 156 127 106 90 77 65 45 37 35 25
270 276 268 257 261 265 260 258 265 269 272 274 275 271 263 257 255 254 255 257 267 276 280 277 270 271 278 282 276 273 276 274 263 247 243 248 241 216 188 181 190 196 187 177 178 182 185 185 179 177 179 178 178 183 184 181 182 180 177 175 173 174 175 170 169 173 172 169 172 176 177 181 180 171 163 169 172 140 109 89 90 86 64 46 43 32
276 308 281 263 260 263 265 266 267 269 271 273 274 275 276 275 268 256 250 251 262 272 274 268 261 258 261 264 261 258 265 270 265 251 238 235 235 229 211 195 193 195 190 182 179 181 187 191 186 181 183 182 180 184 186 184 183 182 179 178 178 178 178 175 174 176 176 175 177 180 182 187 190 186 174 156 138 122 106 92 91 92 75 56 56 49
275 263 266 268 265 264 267 268 269 269 270 270 269 268 268 274 279 277 270 264 264 268 266 262 263 264 258 254 254 258 262 262 258 254 252 247 236 230 226 212 198 193 191 185 180 181 189 196 191 185 186 185 183 185 187 186 185 184 182 181 181 180 180 177 177 180 180 180 185 187 182 179 186 195 183 155 148 150 138 125 116 103 88 77 69 60
266 261 266 271 268 264 267 270 273 276 275 273 276 281 291 300 300 295 286 274 266 264 263 265 271 273 262 250 242 243 253 258 259 256 256 257 250 236 228 221 209 200 196 190 182 183 191 198 195 189 188 187 186 186 187 187 186 184 183 184 183 184 181 177 179 185 184 184 190 191 185 182 188 197 192 171 168 171 161 151 155 155 126 102 91 81
258 260 262 262 263 269 276 279 281 284 285 286 290 294 297 297 291 285 282 280 276 270 263 260 263 266 265 260 252 246 245 249 252 252 250 253 255 247 235 224 211 200 198 195 185 181 189 198 198 193 190 187 187 187 188 188 186 185 185 185 184 185 184 179 180 187 188 190 193 191 189 192 194 194 198 189 178 176 172 166 170 178 177 156 131 114
Height
764 775 779 785 784 775 771 771 774 780 783 786 792 799 807 807 801 794 786 779 780 789 792 788 791 795 796 795 791 789 790 793 796 799 802 803 805 807 809 813 815 818 820 821 824 826 827 828 829 829 830 830 830 830 830 829 829 829 829 829 829 828 827 826 825 825 824 824 823 823 822 822 820 819 818 817 817 816 816 816 816 815 815 816 816 816
767 782 784 779 777 769 766 767 769 777 783 787 794 802 805 805 803 796 789 782 778 789 793 786 791 797 796 794 790 788 791 795 795 798 800 800 802 806 810 813 814 816 817 819 822 824 826 828 829 829 829 830 830 830 830 829 829 829 829 829 828 828 828 827 826 825 825 824 824 823 822 822 820 819 818 816 815 815 814 814 814 814 814 814 815 815
786 788 780 769 767 767 768 769 771 775 780 787 792 799 805 799 795 794 789 783 780 786 790 787 792 797 793 791 789 788 790 792 791 793 795 796 800 804 808 812 814 815 816 818 820 822 824 825 827 828 829 829 830 830 830 829 829 829 828 828 828 828 828 827 827 826 825 824 824 823 822 821 820 818 817 816 815 814 813 813 813 813 813 813 813 813
801 787 772 767 767 770 772 771 773 774 778 785 789 796 797 786 788 797 792 786 784 786 788 791 796 795 791 791 790 788 788 788 787 789 789 791 796 799 802 808 811 814 817 818 820 822 823 825 826 827 828 828 829 829 829 829 830 829 828 828 827 828 827 827 827 826 826 824 823 823 821 820 819 818 816 815 814 813 812 811 811 812 812 812 812 812
794 779 767 770 771 771 775 775 774 777 779 778 780 786 785 780 785 792 789 785 785 787 786 792 806 805 796 796 795 789 787 788 787 789 790 790 793 796 800 805 809 812 816 818 821 822 824 825 826 827 827 827 828 828 829 829 829 829 829 828 828 827 827 827 827 826 825 824 823 822 820 819 818 817 815 814 812 812 811 810 810 811 811 811 811 810
783 772 768 773 774 773 777 777 775 778 781 778 776 776 776 779 780 780 784 787 794 800 789 792 818 824 807 798 796 792 790 790 790 792 793 793 794 799 803 806 809 812 814 816 819 821 823 825 826 827 827 827 828 828 829 830 830 830 829 829 828 827 827 827 826 826 825 824 823 821 820 819 817 816 816 814 813 812 811 810 809 809 810 810 810 809
776 771 771 775 775 777 779 778 775 776 787 792 782 771 771 773 776 779 783 790 803 805 789 786 812 832 826 807 794 792 793 792 792 794 795 793 795 800 803 806 809 811 813 815 818 820 821 823 824 826 827 828 829 829 830 830 830 830 829 829 828 828 827 827 826 825 824 823 822 821 820 819 818 816 815 815 814 812 811 810 809 809 809 809 809 808
775 774 775 776 776 779 781 781 775 771 788 799 782 771 773 772 777 782 784 791 796 794 791 787 793 819 830 810 793 792 795 796 794 795 796 793 794 799 801 804 807 808 811 814 816 818 820 821 822 824 826 828 829 829 830 830 830 830 829 829 828 828 827 827 826 825 824 823 822 821 820 819 818 816 815 814 813 812 811 810 809 808 808 808 808 807
776 778 779 777 778 784 784 779 773 771 784 789 776 771 774 773 777 779 783 790 786 793 810 800 790 813 820 798 790 795 797 799 796 794 795 792 793 797 799 802 804 805 808 812 815 817 819 820 821 823 825 827 828 828 829 829 830 829 829 829 829 828 828 827 826 825 824 823 822 821 820 819 818 816 815 813 812 812 811 810 809 808 807 807 806 806
776 776 776 776 781 785 781 773 770 774 779 777 772 773 773 773 776 777 783 788 788 804 818 805 799 818 822 804 798 801 801 799 796 794 796 794 792 794 798 800 802 804 807 811 814 817 818 819 820 822 823 825 826 827 828 828 829 829 829 829 829 829 828 827 827 826 825 823 822 822 821 819 818 817 815 814 813 812 811 810 809 807 807 806 806 805
775 773 774 775 778 778 774 771 771 773 773 771 773 776 776 777 776 778 781 784 800 817 813 806 807 816 825 818 802 798 797 793 794 798 803 805 797 792 795 799 801 804 806 809 813 816 818 819 819 821 822 823 824 825 826 827 828 828 829 829 829 828 828 827 826 826 825 824 823 823 821 820 819 818 817 815 814 812 811 810 808 807 806 805 805 804
776 778 777 773 772 773 774 774 773 771 770 773 777 778 787 797 795 792 789 790 813 826 812 807 808 810 823 819 800 792 790 788 793 797 804 809 804 796 795 797 800 802 804 807 812 815 816 818 819 819 820 821 823 824 824 826 826 827 827 827 827 827 827 826 826 825 824 824 824 823 822 821 820 819 818 817 815 813 811 810 809 808 806 805 804 803
781 778 776 773 772 773 777 779 776 774 772 775 779 783 800 819 823 819 813 815 831 829 809 801 805 809 810 802 795 792 788 789 791 792 795 798 802 803 797 795 799 800 800 804 810 814 815 817 818 818 819 820 821 822 823 824 825 825 826 826 826 825 825 825 824 824 823 823 823 823 822 821 820 819 818 817 816 814 812 811 810 809 807 805 804 803
791 782 774 777 777 773 777 785 789 785 778 779 782 789 807 823 835 837 827 827 835 823 802 797 806 814 805 791 789 790 787 787 785 785 788 790 798 805 797 794 798 798 800 804 810 814 814 816 817 818 818 819 820 821 822 822 823 823 824 824 824 824 824 824 823 823 823 823 823 822 822 821 820 819 818 817 815 814 813 812 810 808 807 806 805 804
803 801 784 779 780 775 775 779 785 783 779 780 775 783 807 819 831 837 826 824 827 814 802 805 813 819 812 796 784 780 780 782 783 784 786 789 795 797 793 794 797 799 803 807 810 812 814 816 817 817 818 818 819 820 821 821 822 822 823 823 823 823 823 823 822 822 822 822 822 821 821 820 820 819 818 816 815 814 813 811 810 808 807 806 805 804
800 801 780 773 775 776 777 772 770 777 785 781 771 781 801 805 809 817 814 811 814 815 811 809 808 803 798 790 778 775 776 776 781 783 783 788 790 789 792 796 798 801 805 808 809 811 814 816 817 817 818 818 819 820 820 821 821 822 822 822 822 822 822 822 821 821 820 820 820 820 820 819 819 818 817 815 814 813 812 811 809 809 808 807 805 804
800 798 778 772 777 774 775 772 768 779 789 784 783 792 790 783 790 805 810 803 807 823 816 800 799 794 791 790 779 775 778 775 777 780 781 788 790 789 793 797 799 803 806 808 809 811 814 816 816 817 817 818 819 820 820 821 821 821 821 822 822 822 822 821 820 820 819 819 819 819 818 818 818 817 816 815 814 813 812 811 810 810 808 807 805 804
797 803 784 776 783 774 769 774 771 772 778 784 792 791 780 778 784 795 812 812 813 824 809 792 796 795 799 803 788 778 782 780 779 781 783 788 793 794 797 799 800 802 805 807 808 811 813 814 816 817 817 818 818 819 820 820 821 821 821 822 821 821 821 820 819 819 819 818 818 818 817 817 817 816 815 815 814 813 812 811 811 810 808 807 806 805
791 804 791 777 782 775 767 779 784 774 771 778 783 778 781 798 801 799 813 820 822 826 813 797 793 790 798 804 792 786 787 783 782 783 784 787 792 796 798 799 799 801 804 806 807 811 813 814 815 816 817 818 818 819 820 820 820 821 821 821 821 821 821 820 819 819 819 818 818 818 817 817 816 816 815 814 814 813 812 811 811 810 809 807 806 805
789 805 802 781 773 775 775 784 792 784 774 775 777 773 778 791 797 798 803 807 818 827 820 808 800 795 793 789 785 787 787 784 785 785 785 788 789 792 796 797 798 800 804 805 807 809 811 813 814 815 817 817 817 818 819 820 821 820 821 821 821 821 821 820 819 819 818 818 818 818 817 817 816 816 815 815 814 813 812 812 811 810 809 808 807 806
789 801 807 788 773 780 787 785 784 783 782 787 793 792 788 785 788 795 794 792 802 813 815 814 812 800 784 775 778 784 784 784 785 786 787 788 788 790 793 795 797 799 802 804 805 807 809 812 814 815 817 817 817 818 818 820 821 820 821 821 820 820 820 820 820 819 819 818 818 818 817 817 816 816 815 815 814 814 813 812 811 811 810 808 807 807
795 801 806 798 788 790 787 774 772 777 781 789 799 802 798 794 801 814 810 794 791 801 808 814 818 803 779 771 776 779 780 780 780 783 785 785 787 789 790 793 795 797 800 802 804 805 808 810 813 814 815 816 816 817 818 820 821 820 821 821 821 821 821 821 820 819 819 818 819 819 818 818 817 816 816 815 815 814 813 812 812 811 810 809 808 808
796 801 808 806 794 786 777 767 770 776 776 781 789 792 791 790 799 815 818 805 799 803 801 804 813 803 780 773 778 778 778 778 777 780 782 782 784 787 788 791 794 795 798 801 803 805 807 809 812 813 813 815 816 816 819 820 820 821 821 821 821 821 821 821 821 820 819 819 819 819 819 818 818 817 817 816 815 814 814 813 812 811 811 810 810 809
800 803 809 807 792 779 771 766 768 772 778 786 786 782 786 788 789 796 801 803 807 809 803 807 814 802 782 777 779 779 778 779 780 780 780 781 783 785 788 790 792 794 797 800 802 804 806 809 811 812 812 813 814 816 818 820 820 821 821 822 822 822 821 821 821 821 820 819 819 819 819 819 818 818 817 816 816 815 814 814 813 813 812 811 811 810
808 806 808 812 807 793 784 782 783 780 782 790 787 780 782 783 784 790 793 799 809 808 803 812 814 798 784 779 777 778 779 779 781 780 780 782 782 785 787 789 791 794 797 800 802 804 806 808 810 811 811 812 814 816 817 819 820 820 821 822 822 822 822 821 821 821 820 820 819 820 820 820 819 818 817 817 817 816 815 815 814 814 813 812 812 811
809 809 808 817 821 812 804 806 806 797 793 792 788 784 783 781 785 794 799 807 813 805 798 805 806 793 784 781 779 779 780 781 781 780 781 781 782 784 786 788 791 794 797 800 801 804 806 808 810 810 810 812 814 816 817 818 819 819 820 822 821 822 822 821 821 821 821 820 820 820 820 820 820 819 818 818 817 817 816 815 815 815 814 813 813 812
809 810 807 811 815 809 805 804 798 794 799 800 795 791 787 784 784 791 802 809 808 803 800 797 793 791 789 788 786 783 782 784 783 782 782 781 782 784 786 789 791 794 797 799 802 805 806 808 810 810 812 814 815 816 818 818 818 819 820 821 821 822 822 822 822 821 821 821 820 820 820 820 821 820 819 819 818 818 817 816 816 816 815 815 814 813
812 814 808 806 807 801 797 794 788 791 799 800 797 795 791 787 786 791 801 801 798 806 809 793 785 792 791 785 785 783 781 782 782 782 783 782 782 784 786 789 791 792 795 798 802 804 805 808 810 811 814 816 816 817 818 818 819 819 821 821 821 822 822 822 822 821 821 821 821 821 820 820 821 820 820 820 819 819 818 817 817 817 816 816 815 815
814 817 809 806 806 800 794 792 788 792 797 795 794 795 792 791 792 794 796 792 791 803 805 791 788 793 787 779 779 778 777 778 778 778 779 780 781 782 784 787 788 790 793 797 800 802 803 806 808 811 815 816 817 818 818 818 819 819 821 821 821 822 822 821 822 821 821 821 821 821 820 820 820 820 820 820 819 819 819 818 818 817 817 817 816 816
811 816 809 808 809 802 796 791 786 788 794 794 792 790 790 790 791 792 791 788 787 792 791 787 789 788 781 777 775 773 772 773 772 774 776 779 781 781 782 783 784 787 790 793 795 798 800 803 805 809 814 816 817 818 817 818 819 819 821 821 821 822 822 821 822 821 821 821 821 822 821 821 821 820 820 820 820 820 819 819 819 818 818 817 817 817
811 816 808 807 812 807 798 793 790 790 792 791 787 783 783 786 788 788 788 786 787 789 785 785 789 785 776 771 771 770 769 769 771 774 776 778 779 779 780 780 780 782 785 787 790 793 796 799 802 806 810 814 816 817 818 819 819 820 821 821 821 822 821 822 822 821 822 822 822 822 821 821 821 821 821 820 820 820 820 819 819 819 819 818 818 818
812 817 810 810 817 811 798 793 791 787 786 787 787 785 783 785 785 785 784 784 786 788 787 788 791 785 773 768 768 767 767 770 774 775 776 776 776 777 779 779 778 779 780 783 785 788 792 796 800 803 806 811 815 817 818 819 819 820 821 821 822 822 822 822 822 822 822 822 822 822 822 822 821 821 821 821 821 821 821 820 820 820 820 820 820 820
809 815 815 816 821 813 798 791 787 787 796 798 789 782 781 781 780 779 778 778 778 780 786 790 786 777 770 768 769 768 768 771 774 774 774 775 774 775 776 777 777 778 778 780 781 784 790 795 799 802 804 809 814 816 817 819 819 820 820 821 822 822 822 822 822 822 822 822 822 822 822 822 822 822 822 822 822 822 821 821 821 821 821 821 821 821
807 812 814 815 821 818 803 791 789 799 809 799 777 770 775 778 780 782 779 775 773 772 775 775 772 768 768 769 770 770 769 770 771 771 771 772 773 775 774 773 775 777 777 778 779 783 789 793 797 801 804 808 813 815 817 818 819 820 821 821 821 821 822 822 822 823 822 822 823 823 823 823 823 823 823 823 823 823 822 823 822 822 822 822 822 822
807 811 813 813 819 818 805 801 812 816 803 782 767 766 771 773 776 780 779 775 772 771 770 769 768 766 766 767 767 767 767 766 767 768 769 770 772 773 774 773 774 776 777 777 778 782 787 791 796 799 803 808 812 814 816 818 818 819 820 820 821 821 821 822 822 823 823 823 823 823 823 823 823 824 824 824 824 824 824 824 824 824 824 823 823 823
806 810 812 812 815 816 811 814 821 810 786 771 768 766 767 771 775 780 784 779 772 770 770 769 768 765 764 764 763 763 763 762 764 767 768 769 770 771 774 775 774 776 777 776 778 782 786 791 795 798 803 808 811 814 815 817 818 819 819 820 821 821 821 822 822 823 823 824 824 824 824 824 824 824 824 824 825 825 825 825 825 825 825 824 825 825
802 807 810 813 814 815 817 814 806 797 787 781 777 770 769 774 775 779 788 783 770 766 766 764 763 762 761 762 762 761 760 762 767 769 766 766 769 770 771 773 774 775 776 776 780 784 788 792 795 798 803 807 811 813 814 815 817 818 818 819 820 821 821 822 822 823 824 824 824 825 825 825 825 825 825 825 826 826 826 826 826 826 825 825 825 825
798 802 807 815 814 811 815 814 808 807 801 788 779 772 769 772 771 774 786 785 769 762 762 761 760 760 760 761 762 762 764 769 774 771 763 762 766 769 771 772 773 775 776 779 783 786 790 794 796 799 803 807 810 812 813 814 816 817 818 819 819 820 821 821 822 823 824 824 825 825 825 825 826 826 826 826 826 827 827 827 827 827 826 826 826 826
795 796 799 810 815 812 816 819 815 811 800 782 774 770 770 773 770 774 790 788 765 755 757 758 759 760 760 762 763 765 771 777 777 771 765 764 766 769 771 772 772 774 777 781 785 788 791 794 796 800 804 806 809 811 812 814 815 816 817 818 819 819 820 821 822 823 824 824 825 825 826 826 826 826 827 827 827 828 827 827 827 827 827 827 826 826
798 798 800 810 816 814 817 817 809 801 789 775 770 770 770 770 772 786 804 791 762 754 758 758 760 762 761 764 766 768 774 777 774 771 769 767 768 770 771 771 773 775 778 782 787 790 792 794 797 800 803 806 808 810 811 813 814 815 816 817 818 819 820 821 822 823 824 824 825 825 826 826 827 827 827 828 828 828 828 828 828 828 827 827 827 827
801 801 802 807 811 811 815 816 807 795 783 771 768 766 765 770 783 799 802 782 762 761 762 761 763 764 764 767 768 768 770 770 769 770 770 769 770 771 771 772 775 777 779 783 787 790 793 796 798 800 802 805 807 809 811 812 813 814 816 817 818 819 820 821 822 823 824 824 825 825 826 826 827 827 827 828 828 828 828 828 828 828 828 828 828 828
804 804 804 804 806 805 805 807 805 795 777 766 764 761 763 780 795 792 779 767 763 764 764 764 766 765 765 768 768 768 768 767 767 769 770 770 771 771 772 774 776 778 780 783 787 790 793 796 797 799 801 803 806 808 809 811 812 814 815 816 817 818 820 821 822 822 823 824 824 825 826 826 827 827 827 828 828 828 828 828 828 828 828 828 828 827
794 802 806 803 802 802 802 805 808 798 775 762 765 766 767 778 783 772 765 766 765 763 764 766 767 766 767 768 768 768 768 767 767 769 769 769 771 772 774 775 777 778 780 783 787 790 792 794 796 798 800 802 804 806 808 810 811 812 814 815 816 818 819 820 821 822 823 823 824 825 825 826 826 827 827 828 828 828 828 828 828 828 828 828 827 827
783 791 798 795 793 799 804 801 795 784 767 761 767 769 767 768 766 763 766 768 765 764 765 766 765 766 767 767 768 769 768 767 767 768 768 769 771 772 773 775 776 779 781 784 786 788 791 793 795 797 799 801 803 805 806 808 810 811 813 814 815 817 818 819 820 821 822 823 824 824 825 826 826 827 827 827 827 828 828 828 828 828 828 827 827 827
778 777 783 784 781 785 788 783 773 766 762 761 763 764 763 764 763 763 765 766 765 765 765 765 766 766 765 766 767 767 767 767 767 767 767 768 769 770 772 773 776 778 781 784 786 788 789 791 793 795 798 799 801 803 805 806 808 810 811 813 814 816 817 818 819 820 821 822 823 824 825 825 826 826 827 827 827 827 827 828 828 828 828 828 828 828
769 767 772 777 776 774 773 769 765 764 763 761 760 760 760 762 762 761 762 763 763 762 762 763 766 765 765 766 766 766 766 765 765 766 767 767 767 768 770 772 774 777 779 782 785 787 788 790 792 794 796 798 800 802 803 805 806 808 810 811 813 815 816 817 818 819 820 821 822 823 824 824 825 826 826 826 827 827 827 828 828 828 828 828 828 828
766 767 770 772 775 777 775 768 763 763 761 759 758 758 757 757 758 759 760 761 760 760 760 761 763 763 764 765 764 765 765 764 764 766 766 766 767 767 768 770 773 775 777 779 783 785 787 788 790 792 794 796 798 800 801 803 804 806 808 810 811 813 814 815 817 818 819 820 821 822 823 823 824 825 825 826 826 826 827 827 828 828 829 829 829 829
770 772 773 772 772 774 771 763 759 759 757 755 756 757 755 755 755 755 756 757 758 759 759 759 760 762 762 762 763 764 764 763 764 764 764 764 765 765 766 768 770 772 774 777 780 784 785 786 788 790 792 794 796 798 800 801 802 804 806 808 809 811 812 814 815 816 817 819 820 821 821 822 823 823 824 825 825 826 827 827 828 828 828 829 829 829
770 773 773 771 770 769 764 759 757 758 756 754 754 754 753 753 753 752 753 754 755 757 757 757 757 759 760 761 761 761 762 762 761 761 761 762 762 762 764 765 766 769 772 774 777 781 783 784 785 787 790 792 794 795 797 798 800 802 803 805 807 809 810 812 813 815 816 817 818 819 820 821 822 822 823 824 824 825 826 827 828 828 828 829 829 830
768 771 769 770 773 771 764 758 758 760 760 755 752 751 751 751 752 752 753 753 753 754 755 756 756 757 757 757 757 758 760 760 759 759 759 759 759 760 761 762 764 766 768 770 774 777 780 782 783 785 787 789 791 793 794 796 797 799 801 803 805 806 808 810 811 813 814 815 816 817 818 819 820 821 822 822 823 824 825 826 827 827 827 828 829 829
764 764 764 767 770 765 758 754 754 757 757 754 751 751 750 750 750 751 751 751 752 751 752 754 755 755 754 753 753 754 755 755 756 756 756 756 757 757 757 758 760 762 764 767 770 772 776 779 781 782 784 786 788 790 791 793 794 796 798 800 802 803 805 807 809 811 812 813 814 815 816 818 819 819 820 821 821 822 823 824 825 826 826 827 828 829